GW2349 Weather Reports


Display with metric or nautical units.
time (UTC)temp
F
wind
direction
speed
MPH
gust
MPH
rain 1hr
in
rain 24hr
in
rain mn
in
humidity
%
barometer
mb
20260905065043 53 0 0.0 0.0 0.00 0.00 0.00 81 1000.2
20260905064557 53 0 0.0 0.0 0.00 0.00 0.00 81 1000.1
20260905064044 53 0 0.0 0.0 0.00 0.00 0.00 82 1000.1
20260905063542 53 0 0.0 0.0 0.00 0.00 0.00 81 1000.1
20260905063114 52 0 0.0 0.0 0.00 0.00 0.00 81 1000.0
20260905062551 52 0 0.0 0.0 0.00 0.00 0.00 81 999.9
20260905062043 52 0 0.0 0.0 0.00 0.00 0.00 81 999.8
20260905061611 52 0 0.0 0.0 0.00 0.00 0.00 81 999.8
20260905061043 52 0 0.0 0.0 0.00 0.00 0.00 81 1000.0
20260905060542 51 0 0.0 0.0 0.00 0.00 0.00 80 999.9
20260905060053 51 0 0.0 0.0 0.00 0.00 0.00 80 999.9
20260905055542 51 0 0.0 0.0 0.00 0.00 0.00 80 999.8
20260905055044 51 0 0.0 0.0 0.00 0.00 0.00 80 999.9
20260905054603 51 0 0.0 0.0 0.00 0.00 0.00 80 999.8
20260905054044 51 0 0.0 0.0 0.00 0.00 0.00 80 999.7
20260905053542 50 0 0.0 0.0 0.00 0.00 0.00 80 999.7
20260905053059 50 0 0.0 0.0 0.00 0.00 0.00 80 999.8
20260905052542 50 0 0.0 0.0 0.00 0.00 0.00 79 999.7
20260905052045 50 0 0.0 0.0 0.00 0.00 0.00 79 999.7
20260905051556 50 0 0.0 2.0 0.00 0.00 0.00 79 999.7
20260905051042 50 0 0.0 2.0 0.00 0.00 0.00 79 999.7
20260905050542 50 0 0.0 3.0 0.00 0.00 0.00 79 999.7
20260905050053 50 0 0.0 3.0 0.00 0.00 0.00 79 999.7
20260905045546 50 346 1.0 3.0 0.00 0.00 0.00 79 999.7
20260905045042 50 0 0.0 2.0 0.00 0.00 0.00 79 999.7
20260905044553 50 0 1.0 2.0 0.00 0.00 0.00 79 999.7
20260905044045 50 341 0.0 2.0 0.00 0.00 0.00 79 999.7
20260905043542 50 0 0.0 1.0 0.00 0.00 0.00 79 999.6
20260905043119 50 0 0.0 2.0 0.00 0.00 0.00 78 999.7
20260905042541 50 341 0.0 3.0 0.00 0.00 0.00 77 999.7
20260905042042 50 336 1.0 3.0 0.00 0.00 0.00 77 999.6
20260905041604 50 336 0.0 3.0 0.00 0.00 0.00 77 999.6
20260905041041 50 336 0.0 3.0 0.00 0.00 0.00 77 999.6
20260905040541 50 0 0.0 4.0 0.00 0.00 0.00 76 999.6
20260905040122 50 348 2.0 4.0 0.00 0.00 0.00 76 999.6
20260905035542 50 344 1.0 4.0 0.00 0.00 0.00 76 999.6
20260905035042 51 351 1.0 3.0 0.00 0.00 0.00 76 999.5
20260905034600 51 349 0.0 3.0 0.00 0.00 0.00 76 999.5
20260905034046 51 343 2.0 3.0 0.00 0.00 0.00 75 999.4
20260905033541 51 352 1.0 3.0 0.00 0.00 0.00 75 999.4
20260905033110 51 0 1.0 3.0 0.00 0.00 0.00 75 999.4
20260905032544 51 0 0.0 2.0 0.00 0.00 0.00 75 999.4
20260905032043 52 0 0.0 3.0 0.00 0.00 0.00 75 999.3
20260905031606 52 0 1.0 3.0 0.00 0.00 0.00 75 999.3
20260905031043 52 352 1.0 3.0 0.00 0.00 0.00 74 999.3
20260905030542 52 352 1.0 4.0 0.00 0.00 0.00 74 999.2
20260905030101 52 345 2.0 4.0 0.00 0.00 0.00 74 999.2
20260905025541 53 350 1.0 3.0 0.00 0.00 0.00 74 999.2
20260905025043 53 350 0.0 3.0 0.00 0.00 0.00 74 999.3
20260905024602 53 0 1.0 3.0 0.00 0.00 0.00 73 999.2
20260905024041 53 332 0.0 3.0 0.00 0.00 0.00 73 999.2
20260905023543 53 0 0.0 0.0 0.00 0.00 0.00 73 999.3
20260905023105 53 0 0.0 0.0 0.00 0.00 0.00 73 999.2
20260905022542 54 0 0.0 0.0 0.00 0.00 0.00 73 999.3
20260905022042 54 0 0.0 0.0 0.00 0.00 0.00 73 999.2
20260905021552 54 0 0.0 0.0 0.00 0.00 0.00 73 999.3
20260905021046 54 0 0.0 1.0 0.00 0.00 0.00 73 999.2
20260905020542 54 0 0.0 1.0 0.00 0.00 0.00 73 999.2
20260905020058 54 0 0.0 2.0 0.00 0.00 0.00 72 999.2
20260905015542 54 0 0.0 2.0 0.00 0.00 0.00 72 999.3
20260905015042 54 86 0.0 1.0 0.00 0.00 0.00 72 999.2
20260905014557 55 0 0.0 4.0 0.00 0.00 0.00 72 999.2
20260905014045 54 0 0.0 4.0 0.00 0.00 0.00 72 999.2
20260905013541 55 0 0.0 4.0 0.00 0.00 0.00 72 999.2
20260905013103 55 5 0.0 3.0 0.00 0.00 0.00 72 999.2
20260905012542 55 0 0.0 3.0 0.00 0.00 0.00 73 999.0
20260905012044 55 0 1.0 3.0 0.00 0.00 0.00 73 999.1
20260905011557 55 0 0.0 3.0 0.00 0.00 0.00 73 999.1
20260905011042 55 0 0.0 3.0 0.00 0.00 0.00 73 999.1
20260905010541 54 117 0.0 3.0 0.00 0.00 0.00 73 999.0
20260905010054 54 57 0.0 2.0 0.00 0.00 0.00 73 998.9
20260905005541 54 0 0.0 4.0 0.00 0.00 0.00 74 999.0
20260905005042 54 0 0.0 4.0 0.00 0.00 0.00 74 999.0
20260905004613 54 104 0.0 4.0 0.00 0.00 0.00 74 999.0
20260905004042 54 0 0.0 4.0 0.00 0.00 0.00 74 999.0
20260905003545 54 14 0.0 6.0 0.00 0.00 0.00 74 999.0
20260905003101 54 103 0.0 6.0 0.00 0.00 0.00 74 999.1
20260905002546 54 0 0.0 5.0 0.00 0.00 0.00 74 999.0
20260905002042 54 0 0.0 4.0 0.00 0.00 0.00 75 999.1
20260905001558 54 0 0.0 4.0 0.00 0.00 0.00 75 999.1
20260905001042 54 96 0.0 4.0 0.00 0.00 0.00 75 999.1
20260905000544 54 0 0.0 3.0 0.00 0.00 0.00 75 999.1
20260905000054 53 0 0.0 3.0 0.00 0.00 0.00 76 998.9
20260904235544 53 0 0.0 3.0 0.00 0.00 0.00 76 999.0
20260904235044 53 0 0.0 0.0 0.00 0.00 0.00 76 999.0
20260904234556 53 0 0.0 2.0 0.00 0.00 0.00 76 999.1
20260904234042 53 0 0.0 3.0 0.00 0.00 0.00 76 999.0
20260904233542 53 352 1.0 3.0 0.00 0.00 0.00 76 999.1
20260904233108 53 336 1.0 2.0 0.00 0.00 0.00 76 999.1
20260904232543 53 317 1.0 2.0 0.00 0.00 0.00 76 999.1
20260904232043 53 317 0.0 2.0 0.00 0.00 0.00 76 999.1
20260904231608 53 0 0.0 0.0 0.00 0.00 0.00 76 999.1
20260904231042 53 0 0.0 1.0 0.00 0.00 0.00 76 999.1
20260904230542 53 0 0.0 1.0 0.00 0.00 0.00 76 999.0
20260904230112 53 0 0.0 1.0 0.00 0.00 0.00 76 999.1
20260904225544 53 0 0.0 0.0 0.00 0.00 0.00 76 999.1
20260904225042 53 0 0.0 0.0 0.00 0.00 0.00 76 999.0
20260904224604 53 0 0.0 0.0 0.00 0.00 0.00 76 999.0
20260904224044 53 0 0.0 0.0 0.00 0.00 0.00 76 999.0
20260904223541 53 0 0.0 0.0 0.00 0.00 0.00 76 999.0
20260904223106 53 0 0.0 0.0 0.00 0.00 0.00 76 999.1
20260904222543 53 0 0.0 0.0 0.00 0.00 0.00 75 999.1
20260904222049 53 0 0.0 0.0 0.00 0.00 0.00 75 999.1
20260904221605 53 0 0.0 2.0 0.00 0.00 0.00 75 999.1
20260904221045 53 0 0.0 2.0 0.00 0.00 0.00 75 999.1
20260904220542 53 338 0.0 0.0 0.00 0.00 0.00 75 999.1
20260904220116 53 0 0.0 2.0 0.00 0.00 0.00 75 999.2
20260904215542 53 0 0.0 3.0 0.00 0.00 0.00 75 999.1
20260904215042 53 5 1.0 3.0 0.00 0.00 0.00 75 999.0
20260904214603 53 5 0.0 2.0 0.00 0.00 0.00 75 999.1
20260904214045 53 0 1.0 2.0 0.00 0.00 0.00 75 999.1
20260904213542 53 5 0.0 3.0 0.00 0.00 0.00 75 999.1
20260904213055 53 0 1.0 3.0 0.00 0.00 0.00 75 999.1
20260904212542 53 0 0.0 2.0 0.00 0.00 0.00 75 999.2
20260904212041 53 0 0.0 3.0 0.00 0.00 0.00 74 999.1
20260904211608 53 9 0.0 3.0 0.00 0.00 0.00 74 999.1
20260904211044 54 0 0.0 3.0 0.00 0.00 0.00 75 999.1
20260904210542 54 0 1.0 3.0 0.00 0.00 0.00 75 999.2
20260904210104 54 352 0.0 2.0 0.00 0.00 0.00 74 999.1
20260904205542 54 0 0.0 0.0 0.00 0.00 0.00 74 999.2
20260904205045 54 0 0.0 0.0 0.00 0.00 0.00 74 999.2
20260904204555 54 0 0.0 0.0 0.00 0.00 0.00 74 999.1
20260904204042 54 0 0.0 0.0 0.00 0.00 0.00 74 999.1
20260904203542 54 0 0.0 0.0 0.00 0.00 0.00 74 999.2
20260904203055 55 0 0.0 0.0 0.00 0.00 0.00 73 999.2
20260904202542 55 0 0.0 0.0 0.00 0.00 0.00 73 999.2
20260904202043 55 0 0.0 0.0 0.00 0.00 0.00 73 999.2
20260904201559 55 0 0.0 0.0 0.00 0.00 0.00 72 999.2
20260904201048 55 0 0.0 0.0 0.00 0.00 0.00 72 999.1
20260904200546 56 0 0.0 0.0 0.00 0.00 0.00 71 999.2
20260904195545 56 0 0.0 0.0 0.00 0.00 0.00 70 999.2
20260904195044 56 0 0.0 0.0 0.00 0.00 0.00 70 999.2
20260904194603 57 0 0.0 0.0 0.00 0.00 0.00 70 999.2
20260904194044 57 0 0.0 0.0 0.00 0.00 0.00 70 999.2
20260904193547 58 0 0.0 0.0 0.00 0.00 0.00 70 999.1
20260904193110 58 0 0.0 0.0 0.00 0.00 0.00 69 999.0
20260904192543 58 0 0.0 0.0 0.00 0.00 0.00 70 998.9
20260904192045 59 0 0.0 0.0 0.00 0.00 0.00 69 999.0
20260904191554 59 0 0.0 0.0 0.00 0.00 0.00 69 999.1
20260904191043 59 0 0.0 0.0 0.00 0.00 0.00 69 999.0
20260904190544 60 0 0.0 0.0 0.00 0.00 0.00 69 999.0
20260904185543 60 0 0.0 0.0 0.00 0.00 0.00 68 999.0
20260904185044 61 0 0.0 0.0 0.00 0.00 0.00 68 999.0
20260904184607 61 0 0.0 0.0 0.00 0.00 0.00 68 999.0
20260904184044 61 0 0.0 0.0 0.00 0.00 0.00 67 998.9
20260904183544 62 0 0.0 0.0 0.00 0.00 0.00 67 999.0
20260904183120 62 0 0.0 0.0 0.00 0.00 0.00 67 999.0
20260904182543 62 0 0.0 0.0 0.00 0.00 0.00 66 999.1
20260904182043 63 0 0.0 0.0 0.00 0.00 0.00 66 999.0
20260904181603 63 0 0.0 1.0 0.00 0.00 0.00 66 999.0
20260904181044 63 0 0.0 1.0 0.00 0.00 0.00 65 999.0
20260904180543 64 0 0.0 1.0 0.00 0.00 0.00 65 999.1
20260904180123 64 0 0.0 0.0 0.00 0.00 0.00 64 999.1
20260904175543 65 0 0.0 0.0 0.00 0.00 0.00 64 999.1
20260904175043 65 0 0.0 0.0 0.00 0.00 0.00 63 999.1
20260904174610 65 0 0.0 0.0 0.00 0.00 0.00 63 999.1
20260904174043 66 0 0.0 0.0 0.00 0.00 0.00 63 999.0
20260904173543 66 0 0.0 0.0 0.00 0.00 0.00 62 998.9
20260904173106 66 0 0.0 0.0 0.00 0.00 0.00 61 999.0
20260904172543 67 0 0.0 0.0 0.00 0.00 0.00 61 998.9
20260904172043 67 0 0.0 0.0 0.00 0.00 0.00 60 999.0
20260904171604 67 0 0.0 0.0 0.00 0.00 0.00 60 999.1
20260904171043 68 0 0.0 0.0 0.00 0.00 0.00 60 999.0
20260904170543 68 0 0.0 0.0 0.00 0.00 0.00 60 999.0
20260904170058 68 0 0.0 0.0 0.00 0.00 0.00 59 999.0
20260904165544 69 0 0.0 0.0 0.00 0.00 0.00 59 998.9
20260904165044 69 0 0.0 0.0 0.00 0.00 0.00 58 999.0
20260904164607 69 0 0.0 0.0 0.00 0.00 0.00 58 999.1
20260904164043 69 0 0.0 0.0 0.00 0.00 0.00 57 999.1
20260904163543 69 0 0.0 0.0 0.00 0.00 0.00 57 999.0
20260904163059 69 0 0.0 0.0 0.00 0.00 0.00 58 999.1
20260904162544 70 0 0.0 0.0 0.00 0.00 0.00 56 999.1
20260904162042 70 0 0.0 0.0 0.00 0.00 0.00 56 999.1
20260904161620 70 0 0.0 0.0 0.00 0.00 0.00 56 999.1
20260904161046 70 0 0.0 0.0 0.00 0.00 0.00 55 999.2
20260904160548 70 0 0.0 0.0 0.00 0.00 0.00 54 999.2
20260904160103 70 0 0.0 0.0 0.00 0.00 0.00 51 999.3
20260904155544 70 0 0.0 0.0 0.00 0.00 0.00 50 999.2
20260904155043 70 0 0.0 0.0 0.00 0.00 0.00 50 999.3
20260904154603 70 0 0.0 0.0 0.00 0.00 0.00 50 999.3
20260904154043 70 0 0.0 0.0 0.00 0.00 0.00 49 999.3
20260904153547 70 0 0.0 0.0 0.00 0.00 0.00 48 999.3
20260904153103 70 0 0.0 0.0 0.00 0.00 0.00 49 999.4
20260904152544 71 0 0.0 0.0 0.00 0.00 0.00 50 999.3
20260904152045 70 0 0.0 0.0 0.00 0.00 0.00 50 999.3
20260904151557 70 0 0.0 2.0 0.00 0.00 0.00 51 999.4
20260904151044 70 0 0.0 2.0 0.00 0.00 0.00 49 999.4
20260904150544 70 0 0.0 0.0 0.00 0.00 0.00 51 999.4
20260904150059 70 0 0.0 4.0 0.00 0.00 0.00 50 999.3
20260904145544 70 0 0.0 5.0 0.00 0.00 0.00 49 999.4
20260904145044 71 0 1.0 6.0 0.00 0.00 0.00 49 999.4
20260904144609 71 127 2.0 6.0 0.00 0.00 0.00 48 999.4
20260904144044 71 85 1.0 6.0 0.00 0.00 0.00 49 999.4
20260904143544 71 0 2.0 6.0 0.00 0.00 0.00 48 999.4
20260904143100 72 101 1.0 4.0 0.00 0.00 0.00 48 999.4
20260904142543 72 0 1.0 6.0 0.00 0.00 0.00 49 999.3
20260904142044 71 128 1.0 6.0 0.00 0.00 0.00 49 999.4
20260904141602 71 0 0.0 4.0 0.00 0.00 0.00 50 999.3
20260904141043 71 0 1.0 6.0 0.00 0.00 0.00 48 999.3
20260904140543 71 120 2.0 7.0 0.00 0.00 0.00 48 999.3
20260904140105 71 98 3.0 8.0 0.00 0.00 0.00 47 999.3
20260904135545 71 105 2.0 8.0 0.00 0.00 0.00 46 999.5
20260904135044 71 104 2.0 8.0 0.00 0.00 0.00 46 999.6
20260904134609 71 96 2.0 8.0 0.00 0.00 0.00 46 999.5
20260904134043 71 103 2.0 8.0 0.00 0.00 0.00 45 999.7
20260904133543 72 80 2.0 7.0 0.00 0.00 0.00 46 999.7
20260904133109 72 107 3.0 9.0 0.00 0.00 0.00 46 999.8
20260904132543 73 98 3.0 9.0 0.00 0.00 0.00 46 999.7
20260904132044 73 113 2.0 8.0 0.00 0.00 0.00 46 999.6
20260904131555 74 98 2.0 8.0 0.00 0.00 0.00 44 999.7
20260904131043 74 99 3.0 7.0 0.00 0.00 0.00 43 999.6
20260904130543 75 116 3.0 7.0 0.00 0.00 0.00 42 999.5
20260904130104 76 110 3.0 7.0 0.00 0.00 0.00 42 999.5
20260904125545 77 117 2.0 4.0 0.00 0.00 0.00 42 999.5
20260904125044 77 116 0.0 1.0 0.00 0.00 0.00 45 999.5
20260904124610 77 0 0.0 4.0 0.00 0.00 0.00 45 999.4
20260904124045 77 0 0.0 4.0 0.00 0.00 0.00 45 999.5
20260904123548 77 117 1.0 4.0 0.00 0.00 0.00 44 999.6
20260904123106 77 0 1.0 6.0 0.00 0.00 0.00 45 999.6
20260904122544 77 113 2.0 6.0 0.00 0.00 0.00 43 999.5
20260904122046 77 109 1.0 6.0 0.00 0.00 0.00 44 999.5
20260904121600 77 104 2.0 6.0 0.00 0.00 0.00 44 999.6
20260904121045 77 99 0.0 7.0 0.00 0.00 0.00 46 999.6
20260904120544 77 107 0.0 7.0 0.00 0.00 0.00 46 999.6
20260904120111 77 98 1.0 7.0 0.00 0.00 0.00 45 999.6
20260904115543 76 0 0.0 3.0 0.00 0.00 0.00 47 999.6
20260904115043 76 0 0.0 4.0 0.00 0.00 0.00 47 999.6
20260904114558 76 97 1.0 4.0 0.00 0.00 0.00 47 999.6
20260904114043 76 0 0.0 6.0 0.00 0.00 0.00 49 999.7
20260904113543 75 0 1.0 6.0 0.00 0.00 0.00 48 999.8
20260904113056 75 0 1.0 4.0 0.00 0.00 0.00 50 999.8
20260904112543 74 109 1.0 4.0 0.00 0.00 0.00 51 999.8
20260904112043 74 109 1.0 4.0 0.00 0.00 0.00 51 999.8
20260904111603 74 90 1.0 4.0 0.00 0.00 0.00 53 999.7
20260904111043 73 111 0.0 4.0 0.00 0.00 0.00 54 999.7
20260904110546 73 0 0.0 7.0 0.00 0.00 0.00 55 999.8
20260904110104 72 0 2.0 7.0 0.00 0.00 0.00 54 999.7
20260904105541 72 0 1.0 7.0 0.00 0.00 0.00 54 999.7
20260904105041 71 102 3.0 7.0 0.00 0.00 0.00 53 999.7
20260904104556 71 113 2.0 6.0 0.00 0.00 0.00 54 999.8
20260904104041 71 109 0.0 6.0 0.00 0.00 0.00 56 999.9
20260904103542 71 117 1.0 6.0 0.00 0.00 0.00 57 999.9
20260904103104 70 112 2.0 6.0 0.00 0.00 0.00 57 999.9
20260904102544 70 107 2.0 6.0 0.00 0.00 0.00 56 999.8
20260904102044 70 117 1.0 6.0 0.00 0.00 0.00 57 999.8
20260904101609 69 107 2.0 7.0 0.00 0.00 0.00 58 999.9
20260904101042 69 103 3.0 7.0 0.00 0.00 0.00 56 999.9
20260904100541 69 120 2.0 7.0 0.00 0.00 0.00 59 1000.0
20260904095542 69 107 3.0 7.0 0.00 0.00 0.00 60 1000.2
20260904095041 69 113 0.0 7.0 0.00 0.00 0.00 62 1000.2
20260904094556 68 111 2.0 7.0 0.00 0.00 0.00 64 1000.2
20260904094041 68 111 1.0 4.0 0.00 0.00 0.00 65 1000.1
20260904093541 67 0 0.0 4.0 0.00 0.00 0.00 67 1000.2
20260904093103 66 98 1.0 4.0 0.00 0.00 0.00 67 1000.2
20260904092543 66 0 0.0 4.0 0.00 0.00 0.00 67 1000.3
20260904092041 65 0 0.0 4.0 0.00 0.00 0.00 68 1000.3
20260904091554 65 121 1.0 3.0 0.00 0.00 0.00 72 1000.4
20260904091042 64 0 0.0 0.0 0.00 0.00 0.00 74 1000.3
20260904090541 63 0 0.0 0.0 0.00 0.00 0.00 75 1000.5
20260904090100 62 0 0.0 0.0 0.00 0.00 0.00 77 1000.4
20260904085542 61 0 0.0 0.0 0.00 0.00 0.00 77 1000.4
20260904085041 60 0 0.0 0.0 0.00 0.00 0.00 78 1000.4
20260904084558 60 0 0.0 0.0 0.00 0.00 0.00 79 1000.4
20260904084041 59 0 0.0 0.0 0.00 0.00 0.00 80 1000.4
20260904083543 58 0 0.0 0.0 0.00 0.00 0.00 81 1000.4
20260904083105 58 0 0.0 0.0 0.00 0.00 0.00 83 1000.4
20260904082540 57 0 0.0 0.0 0.00 0.00 0.00 85 1000.4
20260904082042 56 0 0.0 0.0 0.00 0.00 0.00 86 1000.5
20260904081551 56 0 0.0 0.0 0.00 0.00 0.00 87 1000.4
20260904081043 55 0 0.0 0.0 0.00 0.00 0.00 87 1000.5
20260904080541 55 0 0.0 0.0 0.00 0.00 0.00 87 1000.5
20260904080106 54 0 0.0 0.0 0.00 0.00 0.00 88 1000.5
20260904075543 54 0 0.0 0.0 0.00 0.00 0.00 88 1000.5
20260904075046 53 0 0.0 0.0 0.00 0.00 0.00 88 1000.5
20260904074557 53 0 0.0 0.0 0.00 0.00 0.00 89 1000.6
20260904074042 53 0 0.0 0.0 0.00 0.00 0.00 90 1000.6
20260904073543 52 0 0.0 0.0 0.00 0.00 0.00 90 1000.7
20260904073103 52 0 0.0 0.0 0.00 0.00 0.00 90 1000.7
20260904072542 52 0 0.0 0.0 0.00 0.00 0.00 91 1000.7
20260904072043 52 0 0.0 0.0 0.00 0.00 0.00 91 1000.8
20260904071553 51 0 0.0 0.0 0.00 0.00 0.00 91 1000.8
20260904071043 51 0 0.0 0.0 0.00 0.00 0.00 91 1000.8
20260904070543 51 0 0.0 0.0 0.00 0.00 0.00 91 1000.8
20260904070100 50 0 0.0 0.0 0.00 0.00 0.00 92 1000.9
20260904065545 50 0 0.0 0.0 0.00 0.00 0.00 92 1000.8